Aleppo, Pennsylvania
Current Conditions -  °F | °C
As of 7:55 AM on Friday 31 Oct 2014 (Local Time) from KAFJ Reporting Station
Overcast Overcast  
Wind Chill: 41°   Ceiling: 4800
Heat Index: 41°   Visibility: 10mi
Dew Point: 37°   Wind: 0mph
Humidity: 87%   Direction: NA
Pressure: 29.97"   Gusts: NA
Location:  39.82°N, 80.45°W
Report Text: KAFJ 311155Z AUTO 00000KT 10SM OVC048 05/03 A2997 RMK AO1 10060 20040 57007
Loading
Personal Weather Stations






























Interactive Weather Map
Tropical Storm Tracking
New forecast layout! Learn more

10-Day Weather Forecast

Advertisements
Track Severe Weather on mobile